Danbury, CT

11:15 AM EDT on April 27, 2017 (GMT -0400)
Danbury Municipal

Weather History for KDXR - December, 2012

Change the Weather History Date:

Saturday, December 29, 2012

  Actual Average Record
Temperature  
Mean Temperature 26 °F -  
Max Temperature 30 °F 38 °F 71 °F (1984)
Min Temperature 21 °F 22 °F 1 °F (1993)
Degree Days  
Heating Degree Days 40    
Moisture  
Dew Point 26 °F    
Average Humidity 90    
Maximum Humidity 100    
Minimum Humidity 80    
Precipitation  
Precipitation 0.22 in - - ()
Sea Level Pressure  
Sea Level Pressure 29.69 in    
Wind  
Wind Speed 3 mph (NNE)    
Max Wind Speed 10 mph    
Max Gust Speed 17 mph    
Visibility 4 miles    
Events Fog , Snow    
Averages and records for this station are not official NWS values.
T = Trace of Precipitation, MM = Missing Value Source: NWS Daily Summary

Daily Weather History Graph

Daily Weather History Graph

Search for Another Location

Airport or City:

Trip Planner

Search our weather history database for the weather conditions in past years. The results will help you decide how hot, cold, wet, or windy it might be!

Date:

Astronomy

Dec. 29, 2012 Rise Set
Actual Time 7:19 AM EST 4:33 PM EST
Civil Twilight 6:48 AM EST 5:04 PM EST
Nautical Twilight 6:13 AM EST 5:39 PM EST
Astronomical Twilight 5:39 AM EST 6:12 PM EST
Moon 6:04 PM EST (12/29) 7:50 AM EST (12/29)
Length of Visible Light 10h 15m
Length of Day
9h 13m
Full, 98% of the Moon is Illuminated
Dec 29
Full
Jan 4
Last Quarter
Jan 11
New
Jan 18
First Quarter
Jan 26
Full

Hourly Weather History & Observations

Time (EST) Temp. Windchill Dew Point Humidity Pressure Visibility Wind Dir Wind Speed Gust Speed Precip Events Conditions
12:53 AM 21.9 °F - 19.9 °F 92% 30.04 in 9.0 mi Calm Calm - N/A   Clear
1:53 AM 21.0 °F - 19.0 °F 92% 30.03 in 10.0 mi Calm Calm - N/A   Clear
2:53 AM 23.0 °F - 21.0 °F 92% 30.03 in 10.0 mi Calm Calm - N/A   Clear
3:53 AM 24.1 °F - 21.0 °F 88% 30.01 in 10.0 mi Calm Calm - N/A   Clear
4:53 AM 26.1 °F - 23.0 °F 88% 30.01 in 10.0 mi Calm Calm - N/A   Overcast
5:53 AM 27.0 °F - 24.1 °F 89% 29.98 in 10.0 mi Calm Calm - N/A   Mostly Cloudy
6:53 AM 28.0 °F - 24.1 °F 85% 29.97 in 10.0 mi Calm Calm - N/A   Mostly Cloudy
7:53 AM 28.0 °F 22.8 °F 23.0 °F 81% 29.95 in 10.0 mi ENE 4.6 mph - N/A   Overcast
8:53 AM 28.0 °F 22.8 °F 23.0 °F 81% 29.92 in 10.0 mi ENE 4.6 mph - N/A   Overcast
9:53 AM 28.0 °F 21.7 °F 24.1 °F 85% 29.89 in 10.0 mi ENE 5.8 mph - N/A   Overcast
10:53 AM 28.9 °F 23.9 °F 24.1 °F 82% 29.86 in 9.0 mi ENE 4.6 mph - 0.00 in Snow Light Snow
11:53 AM 30.0 °F 23.2 °F 25.0 °F 82% 29.79 in 10.0 mi East 6.9 mph - 0.00 in   Overcast
12:38 PM 30.2 °F 24.3 °F 24.8 °F 80% 29.71 in 2.5 mi Variable 5.8 mph - 0.00 in Snow Light Snow
12:46 PM 30.2 °F 23.4 °F 26.6 °F 86% 29.70 in 1.5 mi ENE 6.9 mph - 0.00 in Snow Light Snow
12:53 PM 30.0 °F 24.1 °F 26.1 °F 85% 29.70 in 1.8 mi NE 5.8 mph - 0.00 in Snow Light Snow
1:01 PM 30.2 °F - 26.6 °F 86% 29.68 in 0.8 mi Calm Calm - 0.00 in Snow Light Snow
1:53 PM 30.0 °F 25.2 °F 28.0 °F 92% 29.67 in 1.0 mi ENE 4.6 mph - 0.04 in Snow Light Snow
2:09 PM 30.2 °F 24.3 °F 28.4 °F 93% 29.64 in 0.8 mi NE 5.8 mph - 0.01 in Snow Light Snow
2:34 PM 30.2 °F 24.3 °F 28.4 °F 93% 29.63 in 0.5 mi NE 5.8 mph - 0.04 in Fog , Snow Snow
2:53 PM 30.0 °F 23.2 °F 28.0 °F 92% 29.63 in 0.5 mi NE 6.9 mph - 0.05 in Fog , Snow Snow
3:19 PM 30.2 °F 25.4 °F 28.4 °F 93% 29.61 in 1.0 mi NNE 4.6 mph - 0.01 in Snow Light Snow
3:36 PM 30.2 °F 24.3 °F 28.4 °F 93% 29.59 in 0.8 mi NE 5.8 mph - 0.02 in Snow Light Snow
3:53 PM 30.0 °F 25.2 °F 28.0 °F 92% 29.58 in 0.8 mi NE 4.6 mph - 0.04 in Snow Light Snow
4:08 PM 30.2 °F 24.3 °F 28.4 °F 93% 29.57 in 1.0 mi NE 5.8 mph - 0.00 in Snow Light Snow
4:17 PM 30.2 °F 26.7 °F 28.4 °F 93% 29.56 in 0.5 mi Variable 3.5 mph - 0.01 in Fog , Snow Snow
4:39 PM 30.2 °F 24.3 °F 28.4 °F 93% 29.55 in 1.0 mi NNE 5.8 mph - 0.03 in Snow Light Snow
4:53 PM 30.0 °F 22.4 °F 28.0 °F 92% 29.55 in 1.2 mi NE 8.1 mph - 0.04 in Snow Light Snow
5:15 PM 30.2 °F 22.6 °F 28.4 °F 93% 29.53 in 1.0 mi NNE 8.1 mph - 0.01 in Snow Light Snow
5:33 PM 30.2 °F 26.7 °F 28.4 °F 93% 29.53 in 1.2 mi North 3.5 mph - 0.01 in Snow Light Snow
5:45 PM 30.2 °F 24.3 °F 28.4 °F 93% 29.54 in 1.2 mi North 5.8 mph - 0.02 in Snow Light Snow
6:07 PM 30.2 °F 21.9 °F 28.4 °F 93% 29.52 in 1.5 mi North 9.2 mph - 0.01 in Snow Light Snow
6:53 PM 30.0 °F 21.1 °F 28.0 °F 92% 29.52 in 1.5 mi North 10.4 mph - 0.02 in Snow Light Snow
7:53 PM 30.0 °F 24.1 °F 27.0 °F 88% 29.52 in 2.5 mi NNW 5.8 mph - 0.01 in Snow Light Snow
8:47 PM 28.4 °F 22.2 °F 28.4 °F 100% 29.50 in 2.0 mi NW 5.8 mph - 0.00 in Snow Light Snow
8:50 PM 30.2 °F 25.4 °F 28.4 °F 93% 29.50 in 1.8 mi NW 4.6 mph - 0.00 in Snow Light Snow
8:53 PM 28.9 °F 23.9 °F 28.0 °F 96% 29.52 in 1.8 mi NW 4.6 mph - 0.00 in Snow Light Snow
9:38 PM 28.4 °F 22.2 °F 26.6 °F 93% 29.51 in 1.8 mi WNW 5.8 mph - 0.01 in Snow Light Snow
9:53 PM 28.9 °F 25.2 °F 27.0 °F 92% 29.53 in 2.0 mi Variable 3.5 mph - 0.02 in Snow Light Snow
10:01 PM 28.4 °F 21.2 °F 26.6 °F 93% 29.52 in 3.0 mi WNW 6.9 mph - 0.00 in Snow Light Snow
10:53 PM 28.9 °F 21.9 °F 26.1 °F 89% 29.55 in 10.0 mi WNW 6.9 mph - 0.00 in   Overcast
11:53 PM 28.9 °F 21.1 °F 25.0 °F 85% 29.56 in 10.0 mi WNW 8.1 mph 17.3 mph N/A   Overcast